Voltar ao catálogo

STARLINK-37144

AtivoComunicaçõesVLEO
NORAD 68556·PAYLOAD·🇺🇸 United States

Lançado Apr 2, 2026 de Cape Canaveral Space Force Station

Loading…

Próximas Passagens (próximas 24 horas)

TLE

AtualizadoSource: CelesTrak SupGP

Época: Sep 15, 2026, 04:02 UTC

1 68556C 26070Q   26258.16854167 -.00206080  00000+0 -60878-2 0  2582
2 68556  53.1575 198.5205 0001343  84.0714 158.0753 15.34497454    19

Acompanhe STARLINK-37144 em tempo real com AllMySat

Download on the App Store